When you browse on this site, cookies collect data to enhance your experience and personalize the content and advertising you see.
Visit our Privacy Policy to learn more. By continuing to use the site, you agree to this use of cookies and data.
  • In Hungary
  • List of Countries
  • For 7 days
  • Water Temperature
  • Satellite Maps
  • Weather Map
  • News
  • Weather Widgets
  • user-avatar
    Login

    Hourly Weather Mosonmagyarovar

    Today, 16 June, Sunday

    Time Temperature Precipitation Wind Pressure Humidity
    00:00 +24°C° 0.1 mm 3 mps 749 mmHg 81%
    01:00 +22°C° 0 mm 3 mps 749 mmHg 81%
    02:00 +21°C° 0.4 mm 3 mps 749 mmHg 83%
    03:00 +20°C° 0.4 mm 3 mps 749 mmHg 86%
    04:00 +19°C° 0.4 mm 3 mps 749 mmHg 89%
    05:00 +20°C° 0.1 mm 3 mps 749 mmHg 87%
    06:00 +21°C° 0.1 mm 4 mps 749 mmHg 85%
    07:00 +22°C° 0 mm 4 mps 750 mmHg 85%
    08:00 +23°C° 0.4 mm 5 mps 750 mmHg 82%
    09:00 +24°C° 0.4 mm 6 mps 750 mmHg 78%
    10:00 +26°C° 0.4 mm 7 mps 750 mmHg 74%
    11:00 +27°C° 0 mm 6 mps 750 mmHg 72%
    12:00 +27°C° 0 mm 6 mps 751 mmHg 69%
    13:00 +28°C° 0 mm 6 mps 751 mmHg 67%
    14:00 +28°C° 0 mm 7 mps 751 mmHg 67%
    15:00 +28°C° 0 mm 7 mps 750 mmHg 67%
    16:00 +28°C° 0 mm 8 mps 750 mmHg 66%
    17:00 +26°C° 0.1 mm 8 mps 751 mmHg 70%
    18:00 +24°C° 0.1 mm 7 mps 751 mmHg 74%
    19:00 +23°C° 0.1 mm 7 mps 751 mmHg 77%
    20:00 +22°C° 0.3 mm 7 mps 752 mmHg 81%
    21:00 +21°C° 0.3 mm 7 mps 752 mmHg 84%
    22:00 +20°C° 0.3 mm 7 mps 752 mmHg 87%
    23:00 +18°C° 0.3 mm 7 mps 752 mmHg 86%

    Tomorrow, 17 June, Monday

    Time Temperature Precipitation Wind Pressure Humidity
    00:00 +18°C° 0.3 mm 7 mps 752 mmHg 86%
    01:00 +18°C° 0.3 mm 7 mps 753 mmHg 86%
    02:00 +17°C° 0 mm 6 mps 752 mmHg 86%
    03:00 +17°C° 0 mm 5 mps 752 mmHg 86%
    04:00 +16°C° 0 mm 5 mps 752 mmHg 86%
    05:00 +17°C° 0 mm 5 mps 752 mmHg 84%
    06:00 +19°C° 0 mm 6 mps 753 mmHg 82%
    07:00 +20°C° 0 mm 6 mps 753 mmHg 80%
    08:00 +21°C° 0.1 mm 6 mps 753 mmHg 75%
    09:00 +23°C° 0.1 mm 5 mps 753 mmHg 71%
    10:00 +25°C° 0.1 mm 5 mps 753 mmHg 66%
    11:00 +26°C° 0.4 mm 5 mps 753 mmHg 65%
    12:00 +27°C° 0.4 mm 5 mps 753 mmHg 63%
    13:00 +27°C° 0.4 mm 4 mps 753 mmHg 62%
    14:00 +26°C° 1.1 mm 4 mps 752 mmHg 69%
    15:00 +24°C° 1.1 mm 3 mps 752 mmHg 76%
    16:00 +22°C° 1.1 mm 3 mps 752 mmHg 83%
    17:00 +23°C° 0.1 mm 2 mps 752 mmHg 85%
    18:00 +22°C° 0.1 mm 1 mps 752 mmHg 87%
    19:00 +22°C° 0.1 mm 1 mps 752 mmHg 89%
    20:00 +21°C° 0 mm 1 mps 752 mmHg 90%
    21:00 +21°C° 0 mm 1 mps 752 mmHg 90%
    22:00 +20°C° 0 mm 1 mps 752 mmHg 91%
    23:00 +20°C° 0 mm 1 mps 752 mmHg 90%

    Day after tomorrow, 18 June, Tuesday

    Time Temperature Precipitation Wind Pressure Humidity
    00:00 +20°C° 0 mm 1 mps 752 mmHg 89%
    01:00 +20°C° 0 mm 1 mps 752 mmHg 88%
    02:00 +20°C° 0.4 mm 1 mps 752 mmHg 89%
    03:00 +19°C° 0.4 mm 2 mps 752 mmHg 90%
    04:00 +18°C° 0.4 mm 2 mps 752 mmHg 91%
    05:00 +19°C° 0.2 mm 2 mps 752 mmHg 90%
    06:00 +19°C° 0.2 mm 2 mps 752 mmHg 89%
    07:00 +20°C° 0.2 mm 2 mps 752 mmHg 88%
    08:00 +22°C° 0.1 mm 1 mps 752 mmHg 83%
    09:00 +23°C° 0.1 mm 1 mps 752 mmHg 78%
    10:00 +24°C° 0.1 mm 1 mps 752 mmHg 73%
    11:00 +25°C° 0.1 mm 1 mps 751 mmHg 70%
    12:00 +26°C° 0.1 mm 2 mps 751 mmHg 66%
    13:00 +27°C° 0.1 mm 2 mps 750 mmHg 63%
    14:00 +27°C° 0.2 mm 2 mps 750 mmHg 63%
    15:00 +27°C° 0.2 mm 1 mps 750 mmHg 63%
    16:00 +27°C° 0.2 mm 1 mps 749 mmHg 63%
    17:00 +27°C° 0 mm 1 mps 749 mmHg 68%
    18:00 +26°C° 0 mm 1 mps 749 mmHg 72%
    19:00 +25°C° 0 mm 1 mps 749 mmHg 77%
    20:00 +24°C° 0 mm 1 mps 749 mmHg 81%
    21:00 +23°C° 0 mm 1 mps 749 mmHg 84%
    22:00 +22°C° 0 mm 1 mps 749 mmHg 88%
    23:00 +21°C° 0 mm 1 mps 749 mmHg 89%

    19 June, Wednesday

    Time Temperature Precipitation Wind Pressure Humidity
    00:00 +21°C° 0 mm 1 mps 749 mmHg 90%
    01:00 +21°C° 0 mm 1 mps 749 mmHg 91%
    02:00 +20°C° 0 mm 1 mps 749 mmHg 92%
    03:00 +20°C° 0 mm 1 mps 749 mmHg 92%
    04:00 +18°C° 0 mm 0 mps 749 mmHg 93%
    05:00 +21°C° 0.2 mm 1 mps 749 mmHg 90%
    06:00 +22°C° 0.2 mm 1 mps 749 mmHg 88%
    07:00 +23°C° 0.2 mm 2 mps 749 mmHg 85%
    08:00 +25°C° 0.6 mm 1 mps 749 mmHg 80%
    09:00 +26°C° 0.6 mm 1 mps 749 mmHg 75%
    10:00 +27°C° 0.6 mm 1 mps 749 mmHg 70%
    11:00 +28°C° 0.3 mm 1 mps 748 mmHg 66%
    12:00 +28°C° 0.3 mm 1 mps 748 mmHg 62%
    13:00 +29°C° 0.3 mm 1 mps 748 mmHg 58%
    14:00 +29°C° 0 mm 1 mps 748 mmHg 57%
    15:00 +29°C° 0 mm 1 mps 747 mmHg 56%
    16:00 +29°C° 0 mm 1 mps 747 mmHg 56%
    17:00 +28°C° 0 mm 1 mps 747 mmHg 61%
    18:00 +27°C° 0 mm 1 mps 747 mmHg 66%
    19:00 +26°C° 0 mm 1 mps 747 mmHg 71%
    20:00 +25°C° 0.3 mm 1 mps 747 mmHg 74%
    21:00 +24°C° 0.3 mm 1 mps 747 mmHg 77%
    22:00 +23°C° 0.3 mm 1 mps 748 mmHg 80%
    23:00 +23°C° 0.2 mm 1 mps 747 mmHg 82%

    20 June, Thursday

    Time Temperature Precipitation Wind Pressure Humidity
    00:00 +22°C° 0.2 mm 1 mps 747 mmHg 84%
    01:00 +22°C° 0.2 mm 1 mps 747 mmHg 87%
    02:00 +21°C° 0.3 mm 1 mps 747 mmHg 88%
    03:00 +21°C° 0.3 mm 1 mps 747 mmHg 90%
    04:00 +21°C° 0.3 mm 1 mps 747 mmHg 92%
    05:00 +22°C° 0 mm 1 mps 747 mmHg 89%
    06:00 +23°C° 0 mm 1 mps 748 mmHg 86%
    07:00 +23°C° 0 mm 1 mps 748 mmHg 84%
    08:00 +25°C° 0.1 mm 1 mps 748 mmHg 79%
    09:00 +26°C° 0.1 mm 1 mps 748 mmHg 73%
    10:00 +26°C° 0.1 mm 0 mps 748 mmHg 68%
    11:00 +28°C° 0.7 mm 1 mps 747 mmHg 63%
    12:00 +29°C° 0.7 mm 1 mps 747 mmHg 58%
    13:00 +30°C° 0.7 mm 1 mps 747 mmHg 52%
    14:00 +30°C° 0 mm 1 mps 747 mmHg 52%
    15:00 +30°C° 0 mm 1 mps 747 mmHg 52%
    16:00 +30°C° 0 mm 1 mps 747 mmHg 52%
    17:00 +29°C° 0.1 mm 2 mps 747 mmHg 60%
    18:00 +27°C° 0.1 mm 2 mps 746 mmHg 68%
    19:00 +26°C° 0.1 mm 2 mps 746 mmHg 76%
    20:00 +25°C° 0 mm 2 mps 746 mmHg 79%
    21:00 +23°C° 0 mm 2 mps 747 mmHg 82%
    22:00 +22°C° 0 mm 1 mps 747 mmHg 85%
    23:00 +22°C° 0.1 mm 1 mps 747 mmHg 87%

    21 June, Friday

    Time Temperature Precipitation Wind Pressure Humidity
    00:00 +21°C° 0.1 mm 1 mps 747 mmHg 89%
    01:00 +21°C° 0.1 mm 1 mps 747 mmHg 91%
    02:00 +20°C° 0.9 mm 2 mps 747 mmHg 90%
    03:00 +20°C° 0.9 mm 3 mps 747 mmHg 90%
    04:00 +19°C° 0.9 mm 3 mps 748 mmHg 89%
    05:00 +20°C° 0.1 mm 4 mps 748 mmHg 87%
    06:00 +21°C° 0.1 mm 5 mps 748 mmHg 84%
    07:00 +22°C° 0.1 mm 5 mps 749 mmHg 81%
    08:00 +23°C° 0 mm 5 mps 749 mmHg 76%
    09:00 +25°C° 0 mm 5 mps 749 mmHg 70%
    10:00 +26°C° 0 mm 5 mps 749 mmHg 65%
    11:00 +27°C° 0 mm 5 mps 749 mmHg 63%
    12:00 +28°C° 0 mm 4 mps 749 mmHg 60%
    13:00 +29°C° 0 mm 4 mps 749 mmHg 57%
    14:00 +29°C° 0 mm 4 mps 749 mmHg 58%
    15:00 +29°C° 0 mm 4 mps 749 mmHg 58%
    16:00 +29°C° 0 mm 3 mps 748 mmHg 58%
    17:00 +28°C° 0 mm 3 mps 749 mmHg 64%
    18:00 +27°C° 0 mm 3 mps 749 mmHg 69%
    19:00 +26°C° 0 mm 2 mps 749 mmHg 75%
    20:00 +24°C° 0 mm 2 mps 749 mmHg 77%
    21:00 +23°C° 0 mm 2 mps 749 mmHg 80%
    22:00 +21°C° 0 mm 2 mps 750 mmHg 82%
    23:00 +21°C° 0 mm 2 mps 750 mmHg 83%
    Show more